{"data":{"norad_id":59172,"epoch":"2026-09-20T15:37:47.060832Z","epoch_age_seconds":145749,"freshness":"FRESH","line1":"1 59172U 24044W   26263.65123913  .00010987  00000+0  40807-3 0  9993","line2":"2 59172  42.9986  39.1641 0000814 196.0326 164.0500 15.27589491143924","mean_motion":15.27589491,"eccentricity":8.14e-5,"inclination_deg":42.9986,"raan_deg":39.1641,"arg_perigee_deg":196.0326,"mean_anomaly_deg":164.05,"bstar":0.00040807,"rev_number":14392,"period_min":94.266163029005,"perigee_km":482.46217848354,"apogee_km":483.57917495331,"semimajor_km":6861.1576767184,"source":"CELESTRAK","updated_at":"2026-09-21T09:00:34.060800Z"}}